EHI
0 1 3 4 2 1 0 1 1 1 0 0 0 1 0 0 1 1 1 3 3 3 3 4 4 4 3 3 2 2 2 2 3 3 1 0 0 0 0 0 0 1 1
0 1 3 4 3 1 0 0 0 0 0 0 0 1 1 1 2 2 2 3 3 3 3 4 4 4 3 3 1 1 1 1 2 2 1 0 0 0 0 0 0 1 2
0 0 2 4 4 1 0 0 0 0 0 0 0 1 2 3 5 5 3 2 2 3 3 4 4 3 2 2 1 0 0 0 1 1 1 0 0 0 0 0 0 1 2
0 0 1 4 5 2 0 0 0 0 0 0 0 0 1 3 5 4 3 1 1 3 3 4 3 2 1 1 0 0 0 0 0 0 0 0 0 0 0 1 1 1 1
0 0 2 5 7 4 1 0 0 0 0 0 0 0 0 1 2 2 1 1 2 3 4 4 2 1 0 0 0 0 0 0 0 0 0 0 0 1 1 1 1 1 1
0 0 2 6 7 4 1 0 0 0 0 0 0 0 0 0 0 0 0 1 2 3 4 3 1 0 0 0 0 0 0 0 0 0 0 0 0 1 3 3 2 1 2
0 0 1 3 4 3 1 0 0 0 0 0 0 0 0 0 0 0 0 0 1 1 2 2 1 0 0 0 0 0 0 0 0 0 0 0 0 2 3 3 2 2 2
0 0 1 1 1 1 1 0 0 0 0 0 0 1 1 0 0 0 0 0 0 0 1 1 0 0 0 0 0 0 2 2 1 1 0 0 1 2 3 3 2 2 2
0 0 0 0 1 1 0 0 0 0 0 0 1 2 2 1 0 0 1 1 1 0 1 1 0 0 0 1 1 2 4 4 2 1 0 0 1 2 3 3 2 2 2
0 0 0 0 0 0 0 0 1 1 1 1 2 2 2 1 0 0 2 4 3 2 2 2 1 1 1 2 2 3 4 2 1 1 0 0 1 3 3 3 2 1 1
0 0 0 0 0 0 0 0 1 1 2 1 1 1 1 1 0 0 2 4 5 4 3 2 2 2 1 2 3 4 2 0 0 0 0 1 2 3 4 4 3 1 1
0 0 0 0 0 0 0 0 0 1 1 1 0 0 0 0 0 0 1 2 3 3 2 1 1 1 1 1 3 3 1 0 0 0 1 2 4 5 5 5 5 3 2
1 0 0 0 0 0 0 0 0 0 0 0 0 0 0 0 0 0 0 1 1 1 1 0 0 0 0 1 2 2 1 0 0 0 1 2 4 5 6 6 6 4 2
2 1 1 0 0 0 0 0 0 0 0 0 0 0 0 0 0 0 0 0 0 0 0 0 0 0 0 1 1 1 0 0 0 0 1 2 4 5 6 7 6 4 2
3 3 2 1 0 0 1 1 1 0 0 0 0 0 0 0 0 0 0 0 0 0 0 0 0 0 0 0 0 0 0 0 0 0 0 2 3 4 5 6 6 5 4
4 4 3 2 1 2 3 2 1 0 0 0 0 0 0 0 0 0 0 0 0 0 0 0 0 0 0 0 0 0 0 0 0 0 0 2 2 3 4 6 8 7 6
6 6 6 5 4 4 4 3 2 0 0 0 0 0 0 0 0 0 0 0 0 0 0 0 0 0 0 0 0 0 0 0 0 0 0 1 2 2 4 7 9 9 7
6 6 7 7 5 4 4 3 2 1 1 0 0 0 0 0 0 0 0 0 0 0 0 1 1 1 2 1 1 0 0 0 1 1 1 0 1 1 3 5 7 8 7
5 5 6 7 6 4 3 2 2 2 1 0 0 0 0 0 0 0 0 0 0 0 0 1 2 2 3 3 2 1 1 1 2 3 2 1 0 0 1 2 4 5 6
4 4 4 5 4 3 1 1 1 1 1 0 0 0 0 0 0 0 0 0 0 0 0 1 1 1 2 2 2 2 1 2 3 4 3 2 1 0 0 0 1 3 3
7 6 4 4 4 2 1 1 0 0 0 0 0 0 0 0 0 0 0 0 0 0 0 0 0 0 1 1 1 1 1 2 2 3 3 3 1 0 0 0 0 1 1
13 11 8 6 6 5 3 2 1 1 0 0 0 0 0 1 1 1 0 0 0 0 0 0 0 0 0 0 0 0 0 1 1 1 2 3 2 1 0 0 0 0 0
17 15 12 10 9 7 5 3 3 2 1 1 1 0 1 2 3 3 2 1 0 0 0 0 0 0 0 0 0 0 0 0 0 0 1 2 2 2 1 0 0 0 0
18 17 16 14 11 10 7 5 3 3 2 2 1 1 2 3 5 6 5 3 2 1 0 0 0 0 0 0 0 0 0 0 0 0 0 1 1 2 2 1 0 0 0
20 20 17 15 14 13 10 7 4 3 3 2 1 0 1 2 4 6 6 6 4 3 1 1 0 0 0 0 0 0 0 0 0 0 0 0 0 1 2 1 0 0 0
21 21 17 15 14 14 12 8 4 3 3 2 1 0 0 1 3 5 6 6 6 4 2 2 1 0 0 0 0 0 0 0 0 0 0 0 1 1 2 1 1 0 0
Wind_Speed
1 3 8 11 11 11 12 12 12 13 13 13 13 14 14 14 14 14 14 14 14 13 13 13 13 12 12 11 11 13 13 13 13 13 13 12 12 12 11 12 11 8 12
4 4 9 10 12 11 11 12 12 13 13 13 13 13 13 14 14 14 14 13 13 13 13 13 12 11 11 11 11 12 12 11 11 11 11 10 11 11 11 11 11 7 11
6 5 7 10 11 11 11 12 13 13 13 13 13 13 13 14 14 14 13 13 13 13 12 12 11 10 10 10 10 10 10 10 10 10 8 5 6 10 11 11 12 11 11
6 4 6 10 11 11 12 12 13 13 13 12 12 12 13 13 13 13 13 12 12 12 12 11 11 10 9 9 9 9 9 9 8 8 4 3 4 9 10 11 11 11 11
5 4 6 11 11 12 12 12 12 12 12 12 12 12 13 13 12 12 12 12 12 11 11 11 10 9 8 8 8 7 6 6 6 5 3 2 2 8 10 11 11 11 11
4 4 6 10 11 12 12 12 12 12 12 12 12 12 13 12 12 11 11 11 11 10 10 9 9 8 7 6 6 5 5 5 4 3 2 2 3 8 10 11 10 11 10
4 2 5 10 12 12 12 12 12 12 11 12 12 11 11 11 11 10 10 11 10 10 9 8 8 7 6 5 4 4 5 5 3 3 3 2 4 8 10 10 10 10 10
5 3 5 11 12 12 12 12 12 11 11 11 11 11 11 10 10 9 9 10 10 9 9 8 7 6 5 4 3 3 4 4 3 3 3 3 6 9 10 10 10 9 10
5 4 4 5 8 11 12 12 12 11 11 11 11 11 11 10 9 9 8 9 9 8 8 7 6 5 4 3 3 2 3 4 2 2 4 3 7 9 10 10 10 9 9
4 4 4 4 4 5 6 11 11 11 11 11 11 10 10 9 8 8 7 9 9 8 7 6 5 4 3 3 2 2 3 3 2 2 2 4 8 10 10 10 10 9 9
5 4 5 5 4 4 5 8 8 10 9 9 8 9 7 4 3 4 7 9 8 7 6 5 4 3 2 2 1 1 2 1 2 2 2 6 10 10 10 10 10 9 9
6 5 5 5 5 4 4 4 3 3 4 3 3 4 3 2 2 3 6 7 7 6 4 3 3 2 1 0 0 1 1 2 2 2 3 8 10 11 11 10 10 10 9
7 7 6 6 5 4 3 3 2 2 2 3 3 3 3 2 2 1 1 2 2 3 1 1 1 1 1 1 1 1 1 1 1 2 3 8 10 11 11 10 10 10 9
7 7 7 6 5 5 4 3 3 2 2 2 2 3 3 2 2 2 1 1 1 0 1 1 1 1 1 1 1 1 1 2 2 1 3 8 9 10 10 10 9 9 9
7 7 7 6 6 5 4 3 3 2 2 2 2 2 3 3 2 2 1 1 2 1 2 2 1 1 1 1 1 1 1 1 2 2 2 7 7 8 9 9 9 9 9
6 6 6 6 6 6 4 3 3 2 3 3 2 3 3 3 3 2 2 1 1 2 2 2 1 1 1 0 0 1 1 1 2 2 2 3 6 6 7 7 7 7 8
7 6 6 6 6 5 5 4 3 2 3 3 2 3 3 3 3 3 2 1 1 1 1 1 0 0 0 0 0 1 1 1 2 3 2 1 2 4 5 5 5 5 6
7 6 6 7 6 5 4 4 3 3 3 2 2 2 3 2 3 2 2 1 1 1 1 1 1 1 0 1 1 1 1 1 2 2 2 2 1 1 2 3 3 2 4
7 7 6 6 6 5 4 3 3 3 3 2 2 2 2 2 2 2 1 1 0 1 1 1 1 1 1 0 1 1 1 1 1 2 2 2 2 1 1 2 2 2 2
7 7 6 6 5 5 3 3 2 3 2 2 2 2 2 1 2 1 1 0 1 1 1 1 1 1 1 1 1 2 1 1 1 1 2 2 2 2 2 2 1 1 2
7 7 6 6 5 4 3 2 2 1 1 1 1 2 2 2 2 2 1 1 1 1 1 1 1 2 1 1 2 2 2 2 1 0 1 1 1 2 2 2 1 1 1
9 7 7 7 6 5 3 3 2 2 1 1 1 1 1 1 1 2 2 1 1 1 2 1 2 1 0 1 2 2 2 3 2 1 0 1 1 1 2 3 2 2 1
9 9 8 7 6 5 4 3 2 2 1 1 1 0 1 1 1 1 2 1 1 1 1 1 1 2 1 1 1 3 2 1 1 2 1 0 1 1 1 1 2 2 3
10 8 8 7 6 6 5 5 4 3 2 3 2 1 1 1 1 2 2 2 2 2 2 1 2 2 2 0 1 0 2 3 2 1 2 2 0 0 1 1 1 2 2
9 8 7 7 6 5 5 6 5 3 2 2 1 1 1 0 1 1 2 2 2 2 2 1 1 1 2 2 1 0 1 1 1 2 1 2 2 1 1 1 1 1 2
8 8 8 8 6 6 6 5 6 5 4 3 2 2 1 0 0 1 1 2 2 2 2 2 1 1 1 1 1 1 1 1 1 2 2 1 1 2 1 1 1 1 2
Wind_Direction
143 133 129 128 124 119 117 120 118 113 109 109 111 115 116 116 118 120 120 119 118 117 117 115 114 113 113 111 113 123 125 125 125 126 128 130 130 131 132 130 127 123 125
151 139 130 129 125 121 120 119 118 116 113 110 110 114 117 117 117 119 119 119 120 119 117 115 114 114 113 113 110 116 121 124 126 128 130 132 133 134 136 137 136 135 133
134 135 128 130 126 122 120 121 120 120 117 114 111 113 117 120 121 121 121 121 122 120 118 116 114 114 114 114 114 117 122 125 126 128 129 129 135 138 140 141 141 139 138
130 133 132 132 131 127 124 124 123 122 121 119 117 116 116 122 123 124 123 123 122 123 122 119 117 116 115 113 116 120 125 128 130 132 130 131 140 144 149 148 146 145 143
121 128 138 136 134 130 129 130 130 127 125 123 120 119 120 121 121 123 124 124 125 125 124 124 122 119 119 118 121 126 131 137 134 134 129 133 146 154 154 154 153 151 151
117 130 145 139 137 134 133 132 132 131 129 127 124 123 124 123 123 123 126 128 129 130 129 129 127 125 123 121 123 129 133 139 132 131 132 141 156 162 161 160 160 159 158
128 138 145 140 140 138 136 135 133 132 132 130 129 129 129 128 127 128 129 135 136 135 135 135 133 131 130 127 125 129 136 143 142 144 148 152 167 168 167 166 167 166 165
134 127 137 141 140 141 140 139 137 137 135 135 136 135 135 136 137 137 137 142 142 140 140 140 140 138 139 138 136 137 143 154 143 155 161 167 173 172 171 171 171 171 172
129 121 115 130 135 142 143 141 140 141 140 140 142 143 143 144 144 145 145 146 146 146 147 150 148 147 150 158 159 149 142 142 142 154 172 174 178 177 175 172 171 171 173
117 118 116 111 111 126 138 141 141 143 142 144 145 147 146 146 147 151 152 154 155 157 159 160 160 164 174 188 194 162 141 132 150 163 169 180 180 178 177 175 174 173 175
117 115 124 117 115 120 130 141 140 142 143 143 145 147 142 132 135 148 158 160 164 168 172 176 184 200 222 234 234 160 142 162 162 179 180 182 183 183 182 181 181 181 181
137 134 134 136 137 136 140 129 125 132 131 126 124 128 124 127 135 143 159 168 170 174 179 195 219 245 267 301 258 176 168 172 163 191 187 184 186 187 186 183 182 185 187
149 144 145 150 145 138 127 126 121 118 123 126 131 136 129 122 122 121 133 157 164 175 174 225 274 275 277 289 261 216 193 188 185 202 189 185 189 186 185 185 186 190 192
138 145 149 149 139 139 133 130 132 129 133 139 142 142 134 128 127 131 141 146 155 149 158 226 257 252 268 254 232 218 200 193 188 194 191 189 189 189 191 192 189 196 201
133 142 149 147 141 140 130 139 137 140 145 144 134 143 141 137 142 153 163 165 177 178 183 205 237 237 254 258 232 188 165 176 177 180 178 184 188 190 193 194 196 201 204
135 135 138 136 138 135 130 131 132 141 141 131 135 139 132 134 141 150 157 174 185 190 193 197 199 204 260 223 210 146 155 157 150 151 149 172 182 187 190 194 200 208 211
143 136 136 132 127 126 127 128 121 122 122 123 133 127 124 130 138 141 143 162 196 184 166 151 142 100 247 199 24 88 123 129 142 144 140 143 166 178 187 197 206 213 210
140 136 143 138 127 125 123 121 116 113 118 123 124 113 116 126 130 130 132 176 209 146 138 140 118 99 36 39 41 49 98 108 134 137 139 152 158 171 184 190 187 185 197
148 143 141 133 134 133 126 118 112 111 117 125 120 121 132 129 126 127 149 209 201 86 101 149 130 142 137 85 88 74 76 108 130 139 139 155 153 154 167 180 178 171 174
149 144 141 140 141 135 121 101 86 90 100 112 136 153 150 137 129 126 149 178 96 90 77 86 107 103 128 118 87 68 43 84 115 136 162 163 162 168 172 170 171 193 181
147 144 144 145 150 140 129 128 124 134 132 137 177 173 152 143 139 130 138 117 110 106 119 110 106 81 57 93 79 42 20 31 63 169 167 153 165 181 158 171 175 176 175
158 157 152 154 155 153 155 155 156 150 160 172 175 159 156 147 150 142 139 138 130 107 89 87 107 100 350 89 113 92 22 1 357 357 107 157 174 164 165 180 166 168 164
167 167 163 162 159 160 157 135 116 84 69 69 85 188 210 163 151 135 134 139 133 123 129 114 126 125 139 326 122 136 139 215 310 344 6 60 128 143 206 168 168 176 177
176 169 160 162 162 163 157 149 151 154 168 198 191 191 190 174 176 159 136 131 129 124 126 141 132 135 133 174 316 97 156 156 147 336 338 345 24 191 217 195 179 179 172
171 165 159 158 165 165 162 161 159 165 181 184 167 166 175 187 180 172 145 136 138 142 150 144 125 133 142 154 167 76 60 71 119 139 257 318 336 302 257 221 185 181 182
167 166 163 163 171 171 167 166 166 168 169 162 167 171 190 231 281 287 149 155 159 161 164 168 154 146 148 145 148 141 143 149 180 152 182 235 273 290 293 265 189 190 190